THOR ABLESTAR DEB, 561

Orbit data source: Space-Track

THOR ABLESTAR DEB, 561 is space debris in LEO originally from a launch on Thu, 29 Jun 1961 UTC launched from the Air Force Eastern Test Range (AFETR). Debris objects in space refer to the collection of defunct objects orbiting the Earth. Examples of debris include non-operational satellites, rocket bodies, and fragments generated from explosions, collisions, or faulty payload assembly.

Loading next visibility...
Identifier
561, 1961-015GT
Orbit
LEO
Country
Flag of USUS
Related business
Manufacturer
Unknown
Mission
Spacecraft
Bus & Motor
Unknown
Mass
Unknown
Launch date (UTC)
1961-06-29 (65 years ago)
Launch vehicle
Unknown
Launch site
Air Force Eastern Test Range (AFETR)
Object type
Payload
Rocket body
Debris
Shape & HBR
Unknown shape, 0.1 m
Radar Cross Section
Medium (>0.1 m² and <1 m²)

Expand to show TLE details & history
Last TLE update: 12 hours ago

TLE from 12 hours ago
0 THOR ABLESTAR DEB
1 00561U 61015GT  26033.54816439  .00000307  00000-0  13012-2 0  9998
2 00561  67.7509 218.5518 0627197  29.8750  33.4618 12.41441547924419
Epoch: 2026-02-02T13:09Z
TLE epoch observation values (Epoch: 2026-02-02T13:09:21.403Z)
Latitude
58.93298°
Longitude
-69.03381°
Altitude
1,107.628 km
Speed
7.489 km/s
True Right ascension
17h 24m 11s
True Declination
58° 47' 16"
Sunlit
Object was in daylight at epoch
Visualization orbit readout
Latitude
Unknown
Longitude
Unknown
Altitude
Unknown
Speed
Unknown
Apparent Right ascension
Unknown
Apparent Declination
Unknown
Sunlit
N/A
Visualization observer readout
Local Sidereal Time
02:44:20
Azimuth
Unknown
Elevation
Unknown
Doppler factor
Unknown
Orbital elements
Apogee altitude
1,992.946 km
Perigee altitude
1,004.855 km
Semi-major axis
7,877.038 km
Eccentricity
0.06272
Inclination
67.7509°
RAAN
218.5518°
Arg. of periapsis
29.875°
True anomaly
37.69725°
Mean anomaly
33.4618°
Eccentric anomaly
35.55121°
Mean motion
3.10455 °/min
Orbital period
115.96 mins
BSTAR
0.0013012
Loading maneuver chart data...
Computing Atmospheric mass density...

Documentation

Showing up to 5 results
|